Terug naar catalogus

YAOGAN 15

ActiefMilitairSSO
NORAD 38354·PAYLOAD·🇨🇳 China

Gelanceerd May 29, 2012 vanaf Taiyuan Satellite Launch Center

Loading…

Volgende Passages (komende 24 uur)

TLE

VersSource: Space-Track

Epoch: Sep 14, 2026, 15:27 UTC

1 38354U 12029A   26257.64431994 -.00000224  00000-0 -44985-3 0  9992
2 38354 100.7254 104.0301 0025870  88.9081 271.4996 13.18386396687231

Volg YAOGAN 15 in realtime met AllMySat

Download on the App Store